Location: Bois de la Silve
(44.4667°N, 6.7833°E)
Time: 20:15:26
(UTC+00:00)

Meteor 1-20 Rocket - Pass Details

Date: 14 July 2020
Orbit: 820 x 891 km, 81.2° (Epoch: 14 August)

Event Time Altitude Azimuth Distance (km) Brightness Sun altitude
Exits shadow 00:58:15 40° 231° (SW) 1,227 4.6 -21.5°
Maximum altitude 00:59:57 56° 284° (WNW) 1,010 4.5 -21.3°
Drops below altitude 10° 01:05:33 10° 3° (N) 2,510 7.7 -21.0°
Sets 01:08:04 0° 7° (N) 3,462 8.8 -20.8°
